QPF
0.00 0.01 0.00 0.00 0.00 0.00 0.00 0.00 0.00 0.00 0.00 0.00 0.01 0.00 0.00 0.00 0.00 0.00 0.00 0.00 0.00 0.00 0.00 0.00 0.00 0.00 0.00 0.00 0.00 0.00 0.00 0.00 0.01 0.03 0.04 0.04 0.06 0.05 0.06 0.08 0.08 0.08 0.05
0.00 0.00 0.00 0.00 0.00 0.00 0.00 0.00 0.00 0.00 0.00 0.00 0.00 0.00 0.00 0.00 0.00 0.00 0.00 0.00 0.00 0.00 0.00 0.00 0.00 0.00 0.00 0.01 0.01 0.00 0.00 0.00 0.00 0.02 0.05 0.05 0.05 0.05 0.05 0.07 0.09 0.09 0.07
0.00 0.00 0.00 0.00 0.00 0.00 0.00 0.00 0.00 0.00 0.00 0.00 0.00 0.00 0.00 0.00 0.00 0.00 0.00 0.00 0.00 0.00 0.00 0.00 0.00 0.00 0.00 0.00 0.01 0.01 0.00 0.00 0.00 0.01 0.03 0.04 0.04 0.04 0.05 0.06 0.10 0.13 0.09
0.00 0.00 0.01 0.00 0.00 0.00 0.00 0.00 0.00 0.00 0.00 0.00 0.00 0.00 0.00 0.00 0.00 0.00 0.00 0.00 0.00 0.00 0.00 0.00 0.00 0.00 0.00 0.00 0.00 0.00 0.00 0.00 0.01 0.01 0.01 0.02 0.02 0.03 0.03 0.05 0.09 0.16 0.13
0.00 0.00 0.00 0.00 0.00 0.00 0.00 0.00 0.00 0.00 0.00 0.00 0.00 0.00 0.00 0.00 0.00 0.00 0.00 0.00 0.00 0.00 0.00 0.00 0.00 0.00 0.00 0.00 0.00 0.00 0.00 0.00 0.00 0.00 0.01 0.01 0.02 0.01 0.02 0.03 0.07 0.14 0.15
0.00 0.00 0.00 0.00 0.00 0.00 0.00 0.00 0.00 0.00 0.00 0.00 0.00 0.00 0.00 0.00 0.00 0.00 0.00 0.00 0.00 0.00 0.00 0.00 0.00 0.00 0.00 0.00 0.00 0.00 0.01 0.01 0.01 0.01 0.00 0.01 0.02 0.01 0.02 0.02 0.03 0.10 0.12
0.00 0.00 0.00 0.00 0.00 0.00 0.00 0.00 0.00 0.00 0.00 0.00 0.00 0.00 0.00 0.00 0.00 0.00 0.00 0.00 0.00 0.00 0.00 0.00 0.00 0.00 0.00 0.00 0.00 0.00 0.01 0.01 0.01 0.00 0.00 0.01 0.01 0.01 0.01 0.02 0.02 0.04 0.06
0.00 0.00 0.00 0.00 0.00 0.00 0.00 0.00 0.00 0.00 0.00 0.00 0.00 0.00 0.00 0.00 0.00 0.00 0.00 0.00 0.01 0.01 0.01 0.00 0.00 0.00 0.00 0.00 0.00 0.00 0.00 0.01 0.00 0.00 0.01 0.01 0.01 0.01 0.02 0.03 0.03 0.02 0.04
0.00 0.00 0.00 0.00 0.00 0.00 0.00 0.00 0.00 0.00 0.00 0.00 0.00 0.00 0.00 0.00 0.00 0.00 0.00 0.00 0.00 0.00 0.00 0.00 0.00 0.00 0.00 0.00 0.00 0.01 0.01 0.01 0.01 0.01 0.01 0.01 0.01 0.01 0.01 0.02 0.02 0.02 0.03
0.00 0.00 0.00 0.00 0.00 0.00 0.00 0.00 0.00 0.00 0.00 0.00 0.00 0.00 0.00 0.00 0.00 0.00 0.00 0.00 0.00 0.00 0.00 0.00 0.00 0.00 0.00 0.00 0.00 0.01 0.02 0.01 0.01 0.02 0.02 0.01 0.01 0.00 0.01 0.01 0.01 0.02 0.02
0.00 0.00 0.00 0.00 0.00 0.00 0.00 0.00 0.00 0.00 0.00 0.00 0.00 0.00 0.00 0.00 0.00 0.00 0.00 0.00 0.00 0.00 0.00 0.00 0.00 0.00 0.00 0.00 0.00 0.01 0.01 0.01 0.01 0.01 0.01 0.01 0.00 0.00 0.01 0.01 0.01 0.02 0.03
0.00 0.00 0.00 0.00 0.00 0.00 0.00 0.00 0.00 0.00 0.00 0.00 0.00 0.00 0.00 0.00 0.00 0.00 0.00 0.00 0.00 0.00 0.00 0.00 0.00 0.00 0.00 0.00 0.00 0.00 0.00 0.00 0.00 0.00 0.00 0.00 0.00 0.00 0.01 0.00 0.01 0.02 0.03
0.00 0.00 0.00 0.00 0.00 0.00 0.00 0.00 0.00 0.00 0.00 0.00 0.00 0.00 0.00 0.00 0.00 0.00 0.00 0.00 0.00 0.00 0.00 0.00 0.00 0.00 0.00 0.00 0.00 0.00 0.00 0.00 0.00 0.00 0.00 0.00 0.00 0.00 0.00 0.00 0.01 0.02 0.02
0.00 0.00 0.00 0.00 0.00 0.00 0.00 0.00 0.00 0.00 0.00 0.00 0.00 0.00 0.00 0.00 0.00 0.00 0.00 0.00 0.00 0.00 0.00 0.00 0.00 0.00 0.00 0.01 0.00 0.00 0.00 0.00 0.00 0.00 0.00 0.01 0.01 0.01 0.01 0.01 0.02 0.03 0.02
0.00 0.00 0.00 0.00 0.00 0.00 0.00 0.00 0.00 0.00 0.00 0.00 0.00 0.00 0.00 0.00 0.00 0.00 0.00 0.00 0.00 0.00 0.00 0.00 0.00 0.00 0.00 0.00 0.00 0.00 0.01 0.01 0.01 0.00 0.00 0.00 0.00 0.01 0.01 0.01 0.02 0.02 0.02
0.00 0.00 0.00 0.00 0.00 0.00 0.00 0.00 0.00 0.00 0.00 0.00 0.00 0.00 0.00 0.00 0.00 0.00 0.00 0.00 0.00 0.00 0.00 0.00 0.00 0.00 0.00 0.00 0.00 0.00 0.00 0.00 0.01 0.01 0.01 0.00 0.00 0.00 0.01 0.01 0.02 0.02 0.02
0.00 0.00 0.00 0.00 0.00 0.00 0.00 0.00 0.00 0.00 0.00 0.00 0.00 0.00 0.00 0.00 0.00 0.00 0.00 0.00 0.00 0.00 0.00 0.00 0.00 0.00 0.00 0.00 0.00 0.00 0.00 0.00 0.00 0.00 0.01 0.01 0.01 0.00 0.00 0.00 0.01 0.02 0.01
0.00 0.00 0.00 0.00 0.00 0.00 0.00 0.00 0.00 0.00 0.00 0.00 0.00 0.00 0.00 0.00 0.00 0.00 0.00 0.00 0.00 0.00 0.00 0.00 0.00 0.00 0.00 0.00 0.00 0.00 0.00 0.00 0.00 0.00 0.00 0.00 0.00 0.00 0.00 0.00 0.01 0.01 0.01
0.00 0.00 0.00 0.00 0.00 0.00 0.00 0.00 0.00 0.00 0.00 0.00 0.00 0.00 0.00 0.00 0.00 0.00 0.00 0.00 0.00 0.00 0.00 0.00 0.00 0.00 0.00 0.00 0.00 0.00 0.00 0.00 0.00 0.00 0.00 0.00 0.00 0.00 0.00 0.00 0.01 0.01 0.01
0.00 0.00 0.00 0.00 0.00 0.00 0.00 0.00 0.00 0.00 0.00 0.00 0.00 0.00 0.00 0.00 0.00 0.00 0.00 0.00 0.00 0.00 0.00 0.00 0.00 0.00 0.00 0.00 0.00 0.00 0.00 0.00 0.00 0.00 0.00 0.00 0.01 0.01 0.00 0.00 0.00 0.01 0.01
0.00 0.00 0.00 0.00 0.00 0.00 0.00 0.00 0.00 0.00 0.00 0.00 0.00 0.00 0.00 0.00 0.00 0.00 0.00 0.00 0.00 0.00 0.00 0.00 0.00 0.00 0.00 0.00 0.00 0.00 0.00 0.00 0.01 0.01 0.00 0.00 0.00 0.00 0.00 0.00 0.00 0.02 0.02
0.00 0.00 0.00 0.00 0.00 0.00 0.00 0.00 0.00 0.00 0.00 0.00 0.00 0.00 0.00 0.00 0.00 0.00 0.00 0.00 0.00 0.00 0.00 0.00 0.00 0.00 0.00 0.00 0.00 0.00 0.00 0.00 0.00 0.01 0.01 0.00 0.00 0.00 0.00 0.00 0.00 0.01 0.02
0.00 0.00 0.00 0.00 0.00 0.00 0.00 0.00 0.00 0.00 0.00 0.00 0.00 0.00 0.00 0.00 0.00 0.00 0.00 0.00 0.00 0.00 0.00 0.00 0.00 0.00 0.00 0.00 0.00 0.00 0.00 0.00 0.00 0.01 0.01 0.00 0.01 0.01 0.01 0.00 0.00 0.00 0.00
0.00 0.00 0.00 0.00 0.00 0.00 0.00 0.00 0.00 0.00 0.00 0.00 0.00 0.00 0.00 0.00 0.00 0.00 0.00 0.00 0.00 0.00 0.00 0.00 0.00 0.00 0.00 0.00 0.00 0.00 0.00 0.00 0.00 0.00 0.00 0.00 0.00 0.01 0.01 0.00 0.00 0.00 0.00
0.00 0.00 0.00 0.00 0.00 0.00 0.00 0.00 0.00 0.00 0.00 0.00 0.00 0.00 0.00 0.00 0.00 0.00 0.00 0.00 0.00 0.00 0.00 0.00 0.00 0.00 0.00 0.00 0.00 0.00 0.00 0.00 0.00 0.00 0.00 0.00 0.00 0.00 0.00 0.00 0.00 0.00 0.00
0.00 0.00 0.00 0.00 0.00 0.00 0.00 0.00 0.00 0.00 0.00 0.00 0.00 0.00 0.00 0.00 0.00 0.00 0.00 0.00 0.00 0.01 0.00 0.00 0.00 0.00 0.00 0.00 0.00 0.00 0.00 0.00 0.00 0.00 0.00 0.00 0.00 0.00 0.00 0.00 0.00 0.00 0.00
MSLP
1012.32 1012.45 1012.60 1012.75 1012.89 1013.03 1013.17 1013.32 1013.50 1013.70 1013.90 1014.09 1014.25 1014.35 1014.38 1014.33 1014.22 1014.05 1013.86 1013.67 1013.49 1013.34 1013.20 1013.08 1012.95 1012.81 1012.66 1012.49 1012.31 1012.16 1012.04 1011.96 1011.93 1011.94 1011.98 1012.03 1012.06 1012.05 1011.99 1011.88 1011.74 1011.59 1011.44
1012.16 1012.35 1012.57 1012.77 1012.94 1013.09 1013.22 1013.34 1013.50 1013.68 1013.88 1014.08 1014.26 1014.40 1014.46 1014.44 1014.34 1014.18 1013.99 1013.79 1013.61 1013.45 1013.32 1013.21 1013.10 1012.97 1012.82 1012.65 1012.46 1012.28 1012.13 1012.02 1011.96 1011.96 1012.00 1012.05 1012.10 1012.12 1012.08 1011.99 1011.85 1011.69 1011.52
1011.88 1012.14 1012.43 1012.70 1012.92 1013.09 1013.23 1013.35 1013.49 1013.66 1013.86 1014.08 1014.29 1014.45 1014.54 1014.55 1014.47 1014.32 1014.13 1013.93 1013.74 1013.58 1013.46 1013.35 1013.25 1013.14 1012.99 1012.82 1012.62 1012.42 1012.24 1012.10 1012.02 1012.01 1012.04 1012.10 1012.17 1012.21 1012.19 1012.12 1012.00 1011.83 1011.65
1011.51 1011.83 1012.20 1012.54 1012.83 1013.04 1013.20 1013.34 1013.48 1013.65 1013.85 1014.08 1014.31 1014.50 1014.62 1014.65 1014.59 1014.46 1014.27 1014.07 1013.88 1013.72 1013.59 1013.49 1013.40 1013.30 1013.16 1013.00 1012.80 1012.58 1012.39 1012.23 1012.13 1012.09 1012.12 1012.18 1012.26 1012.31 1012.32 1012.27 1012.16 1012.00 1011.82
1011.12 1011.49 1011.92 1012.33 1012.67 1012.93 1013.12 1013.28 1013.42 1013.60 1013.82 1014.06 1014.31 1014.52 1014.67 1014.73 1014.69 1014.57 1014.39 1014.18 1013.99 1013.82 1013.70 1013.60 1013.52 1013.43 1013.32 1013.16 1012.96 1012.75 1012.55 1012.38 1012.26 1012.21 1012.22 1012.28 1012.36 1012.43 1012.46 1012.42 1012.33 1012.18 1012.00
1010.79 1011.18 1011.65 1012.10 1012.48 1012.78 1012.99 1013.16 1013.32 1013.51 1013.74 1014.00 1014.26 1014.50 1014.67 1014.75 1014.73 1014.62 1014.45 1014.24 1014.05 1013.88 1013.76 1013.67 1013.60 1013.53 1013.43 1013.29 1013.11 1012.91 1012.70 1012.52 1012.39 1012.33 1012.33 1012.38 1012.45 1012.52 1012.56 1012.55 1012.47 1012.34 1012.17
1010.62 1011.00 1011.45 1011.91 1012.29 1012.59 1012.82 1012.99 1013.16 1013.35 1013.58 1013.85 1014.13 1014.39 1014.58 1014.68 1014.68 1014.58 1014.42 1014.23 1014.04 1013.87 1013.75 1013.67 1013.62 1013.56 1013.49 1013.37 1013.21 1013.03 1012.83 1012.65 1012.51 1012.43 1012.41 1012.44 1012.50 1012.57 1012.61 1012.62 1012.57 1012.46 1012.32
1010.65 1010.98 1011.39 1011.80 1012.15 1012.42 1012.61 1012.77 1012.92 1013.10 1013.34 1013.61 1013.90 1014.17 1014.38 1014.50 1014.52 1014.44 1014.30 1014.12 1013.94 1013.79 1013.68 1013.62 1013.58 1013.54 1013.49 1013.40 1013.27 1013.10 1012.91 1012.73 1012.59 1012.49 1012.45 1012.46 1012.51 1012.57 1012.62 1012.63 1012.60 1012.53 1012.42
1010.92 1011.17 1011.49 1011.81 1012.08 1012.28 1012.41 1012.52 1012.63 1012.79 1013.01 1013.27 1013.55 1013.83 1014.05 1014.19 1014.24 1014.19 1014.08 1013.92 1013.77 1013.64 1013.55 1013.51 1013.49 1013.48 1013.45 1013.38 1013.27 1013.12 1012.95 1012.78 1012.63 1012.52 1012.46 1012.46 1012.48 1012.53 1012.58 1012.61 1012.60 1012.57 1012.50
1011.42 1011.55 1011.76 1011.96 1012.11 1012.20 1012.24 1012.27 1012.33 1012.44 1012.62 1012.85 1013.13 1013.40 1013.62 1013.78 1013.85 1013.84 1013.76 1013.65 1013.53 1013.44 1013.38 1013.36 1013.37 1013.38 1013.37 1013.33 1013.25 1013.12 1012.97 1012.81 1012.66 1012.54 1012.47 1012.44 1012.45 1012.49 1012.53 1012.57 1012.59 1012.59 1012.57
1012.09 1012.12 1012.18 1012.24 1012.25 1012.21 1012.14 1012.08 1012.05 1012.10 1012.22 1012.42 1012.66 1012.90 1013.13 1013.29 1013.39 1013.41 1013.38 1013.31 1013.25 1013.20 1013.18 1013.19 1013.23 1013.26 1013.28 1013.27 1013.21 1013.11 1012.98 1012.83 1012.69 1012.58 1012.50 1012.46 1012.45 1012.47 1012.51 1012.56 1012.60 1012.63 1012.66
1012.88 1012.80 1012.73 1012.63 1012.49 1012.32 1012.13 1011.97 1011.85 1011.82 1011.88 1012.01 1012.20 1012.41 1012.61 1012.78 1012.88 1012.94 1012.95 1012.94 1012.92 1012.93 1012.95 1013.01 1013.07 1013.14 1013.18 1013.19 1013.16 1013.09 1012.98 1012.86 1012.74 1012.63 1012.56 1012.51 1012.50 1012.51 1012.54 1012.59 1012.65 1012.70 1012.77
1013.70 1013.53 1013.33 1013.10 1012.84 1012.54 1012.24 1011.97 1011.77 1011.65 1011.63 1011.69 1011.81 1011.97 1012.13 1012.27 1012.38 1012.45 1012.50 1012.53 1012.57 1012.62 1012.70 1012.79 1012.88 1012.98 1013.05 1013.08 1013.08 1013.04 1012.97 1012.88 1012.79 1012.70 1012.64 1012.60 1012.58 1012.59 1012.62 1012.66 1012.72 1012.80 1012.89
1014.49 1014.24 1013.95 1013.62 1013.24 1012.85 1012.46 1012.11 1011.82 1011.62 1011.51 1011.49 1011.53 1011.61 1011.71 1011.81 1011.90 1011.97 1012.03 1012.10 1012.18 1012.27 1012.38 1012.50 1012.63 1012.75 1012.84 1012.90 1012.93 1012.93 1012.90 1012.85 1012.80 1012.75 1012.71 1012.68 1012.68 1012.68 1012.71 1012.75 1012.81 1012.89 1012.99
1015.18 1014.89 1014.53 1014.13 1013.69 1013.22 1012.77 1012.36 1012.01 1011.74 1011.54 1011.42 1011.37 1011.36 1011.37 1011.41 1011.45 1011.50 1011.56 1011.63 1011.73 1011.84 1011.97 1012.12 1012.27 1012.40 1012.52 1012.61 1012.67 1012.70 1012.72 1012.72 1012.72 1012.71 1012.71 1012.71 1012.72 1012.74 1012.76 1012.80 1012.86 1012.94 1013.05
1015.75 1015.43 1015.04 1014.60 1014.13 1013.63 1013.15 1012.70 1012.31 1011.97 1011.70 1011.49 1011.33 1011.21 1011.13 1011.07 1011.04 1011.04 1011.06 1011.12 1011.21 1011.32 1011.46 1011.61 1011.76 1011.91 1012.04 1012.15 1012.25 1012.33 1012.39 1012.45 1012.50 1012.55 1012.59 1012.63 1012.67 1012.70 1012.73 1012.78 1012.83 1012.92 1013.03
1016.17 1015.85 1015.46 1015.01 1014.53 1014.05 1013.56 1013.10 1012.67 1012.29 1011.95 1011.65 1011.38 1011.15 1010.96 1010.80 1010.68 1010.60 1010.56 1010.57 1010.62 1010.71 1010.82 1010.96 1011.10 1011.25 1011.39 1011.52 1011.65 1011.77 1011.89 1012.01 1012.12 1012.23 1012.33 1012.41 1012.48 1012.53 1012.58 1012.63 1012.70 1012.79 1012.91
1016.45 1016.14 1015.77 1015.34 1014.89 1014.42 1013.96 1013.50 1013.06 1012.64 1012.24 1011.86 1011.50 1011.16 1010.85 1010.58 1010.35 1010.17 1010.05 1009.99 1009.98 1010.01 1010.08 1010.18 1010.30 1010.44 1010.58 1010.73 1010.89 1011.05 1011.23 1011.40 1011.58 1011.75 1011.90 1012.03 1012.14 1012.22 1012.29 1012.36 1012.44 1012.55 1012.69
1016.62 1016.33 1015.99 1015.60 1015.18 1014.75 1014.31 1013.87 1013.43 1012.99 1012.54 1012.09 1011.65 1011.21 1010.79 1010.41 1010.07 1009.79 1009.57 1009.41 1009.31 1009.27 1009.27 1009.32 1009.40 1009.51 1009.65 1009.81 1009.99 1010.20 1010.43 1010.66 1010.90 1011.13 1011.34 1011.52 1011.66 1011.78 1011.89 1011.98 1012.09 1012.22 1012.38
1016.71 1016.45 1016.13 1015.78 1015.40 1015.00 1014.59 1014.17 1013.74 1013.28 1012.80 1012.30 1011.79 1011.27 1010.77 1010.28 1009.84 1009.45 1009.12 1008.86 1008.66 1008.52 1008.44 1008.42 1008.45 1008.52 1008.64 1008.81 1009.02 1009.26 1009.54 1009.83 1010.13 1010.42 1010.68 1010.91 1011.10 1011.26 1011.39 1011.52 1011.66 1011.82 1012.02
1016.76 1016.52 1016.22 1015.90 1015.55 1015.18 1014.79 1014.39 1013.96 1013.49 1013.00 1012.47 1011.91 1011.33 1010.76 1010.19 1009.66 1009.17 1008.73 1008.36 1008.05 1007.81 1007.63 1007.53 1007.48 1007.51 1007.61 1007.77 1007.99 1008.27 1008.60 1008.94 1009.30 1009.64 1009.96 1010.24 1010.47 1010.68 1010.85 1011.02 1011.19 1011.39 1011.63
1016.78 1016.55 1016.27 1015.96 1015.63 1015.27 1014.90 1014.50 1014.08 1013.61 1013.11 1012.56 1011.98 1011.37 1010.74 1010.12 1009.52 1008.94 1008.41 1007.92 1007.50 1007.14 1006.86 1006.65 1006.53 1006.50 1006.56 1006.71 1006.94 1007.24 1007.61 1008.01 1008.42 1008.82 1009.19 1009.52 1009.81 1010.06 1010.28 1010.49 1010.72 1010.96 1011.24
1016.77 1016.54 1016.27 1015.96 1015.63 1015.28 1014.90 1014.51 1014.08 1013.61 1013.11 1012.56 1011.97 1011.35 1010.71 1010.05 1009.39 1008.74 1008.12 1007.54 1007.00 1006.53 1006.12 1005.81 1005.59 1005.49 1005.49 1005.61 1005.84 1006.16 1006.56 1007.00 1007.47 1007.93 1008.36 1008.75 1009.10 1009.41 1009.69 1009.95 1010.23 1010.52 1010.85
1016.72 1016.49 1016.21 1015.90 1015.55 1015.18 1014.80 1014.39 1013.96 1013.49 1012.99 1012.45 1011.87 1011.26 1010.61 1009.94 1009.25 1008.55 1007.85 1007.17 1006.53 1005.93 1005.41 1004.97 1004.65 1004.45 1004.39 1004.47 1004.68 1005.00 1005.42 1005.90 1006.41 1006.93 1007.43 1007.90 1008.32 1008.70 1009.04 1009.38 1009.72 1010.07 1010.46
1016.61 1016.37 1016.07 1015.74 1015.37 1014.98 1014.57 1014.14 1013.70 1013.23 1012.73 1012.20 1011.64 1011.05 1010.41 1009.74 1009.04 1008.30 1007.55 1006.79 1006.04 1005.33 1004.68 1004.13 1003.69 1003.39 1003.24 1003.25 1003.42 1003.73 1004.15 1004.66 1005.22 1005.80 1006.37 1006.91 1007.42 1007.88 1008.31 1008.73 1009.15 1009.58 1010.04
1016.41 1016.16 1015.84 1015.48 1015.08 1014.66 1014.22 1013.77 1013.30 1012.82 1012.32 1011.81 1011.27 1010.70 1010.09 1009.43 1008.72 1007.97 1007.17 1006.35 1005.52 1004.70 1003.94 1003.27 1002.71 1002.29 1002.05 1001.97 1002.08 1002.35 1002.76 1003.28 1003.87 1004.50 1005.14 1005.77 1006.36 1006.93 1007.46 1007.98 1008.49 1009.01 1009.55
Thickness
5749 5749 5749 5748 5744 5741 5738 5736 5732 5729 5725 5721 5717 5714 5711 5709 5707 5705 5702 5699 5696 5693 5690 5687 5684 5682 5679 5676 5675 5674 5673 5673 5674 5675 5676 5680 5685 5689 5694 5699 5702 5707 5710
5744 5745 5745 5745 5743 5740 5737 5734 5731 5728 5725 5721 5717 5713 5710 5707 5705 5702 5700 5697 5694 5691 5689 5685 5682 5679 5676 5674 5672 5671 5669 5669 5670 5670 5669 5670 5675 5682 5688 5693 5697 5701 5705
5743 5743 5743 5742 5741 5738 5736 5734 5730 5727 5724 5720 5716 5712 5707 5704 5702 5700 5697 5695 5693 5690 5687 5684 5681 5678 5675 5672 5670 5668 5667 5665 5666 5667 5667 5665 5665 5672 5680 5686 5691 5695 5699
5745 5743 5742 5741 5740 5738 5736 5733 5729 5726 5722 5719 5715 5710 5705 5701 5700 5697 5695 5694 5692 5689 5686 5683 5680 5677 5674 5671 5669 5667 5666 5664 5663 5664 5665 5666 5667 5668 5670 5678 5685 5690 5693
5745 5744 5744 5742 5741 5739 5735 5731 5728 5724 5721 5718 5714 5710 5705 5702 5699 5697 5694 5692 5690 5688 5685 5682 5679 5676 5674 5671 5668 5666 5664 5663 5661 5661 5662 5663 5664 5667 5667 5669 5676 5682 5688
5745 5743 5743 5741 5738 5736 5733 5730 5726 5723 5720 5716 5713 5710 5706 5702 5698 5695 5693 5691 5689 5687 5685 5682 5679 5676 5674 5671 5668 5666 5663 5662 5660 5660 5660 5661 5662 5663 5665 5666 5670 5674 5681
5742 5740 5739 5737 5735 5733 5731 5728 5724 5721 5718 5715 5712 5709 5706 5702 5699 5695 5692 5689 5687 5685 5684 5682 5679 5676 5674 5671 5668 5666 5663 5661 5660 5659 5659 5660 5661 5663 5664 5665 5666 5670 5675
5741 5740 5739 5737 5735 5733 5730 5727 5723 5721 5718 5715 5712 5709 5706 5702 5699 5696 5693 5690 5687 5686 5684 5682 5679 5676 5674 5671 5668 5665 5663 5661 5660 5659 5658 5659 5660 5662 5663 5664 5664 5665 5669
5740 5739 5738 5737 5735 5732 5730 5728 5724 5720 5717 5715 5712 5708 5706 5703 5700 5697 5694 5691 5689 5687 5685 5682 5679 5676 5674 5671 5668 5665 5663 5661 5660 5659 5659 5658 5659 5661 5662 5663 5665 5664 5664
5738 5738 5736 5736 5735 5733 5731 5728 5725 5721 5718 5715 5712 5709 5706 5703 5700 5697 5694 5691 5690 5687 5685 5682 5679 5677 5674 5671 5668 5665 5663 5661 5660 5659 5658 5658 5659 5660 5661 5662 5663 5665 5665
5736 5736 5735 5735 5734 5732 5729 5726 5723 5720 5717 5714 5712 5709 5706 5703 5700 5697 5695 5692 5690 5688 5685 5682 5679 5677 5674 5671 5668 5666 5664 5662 5660 5659 5659 5658 5659 5659 5660 5660 5662 5663 5664
5735 5735 5734 5732 5730 5729 5727 5725 5722 5719 5717 5714 5711 5708 5706 5703 5700 5697 5695 5693 5690 5688 5685 5683 5680 5677 5674 5671 5669 5666 5664 5662 5661 5659 5659 5658 5659 5658 5659 5659 5660 5661 5663
5732 5731 5730 5728 5727 5726 5725 5723 5721 5719 5717 5714 5710 5707 5704 5702 5699 5698 5696 5693 5691 5688 5685 5682 5680 5677 5674 5672 5669 5667 5665 5663 5661 5660 5659 5659 5659 5658 5658 5658 5659 5660 5662
5727 5727 5725 5724 5724 5724 5723 5722 5720 5718 5716 5712 5709 5706 5704 5702 5700 5698 5696 5693 5690 5687 5685 5682 5680 5677 5675 5672 5670 5667 5665 5663 5662 5661 5660 5659 5659 5659 5658 5658 5658 5659 5659
5723 5723 5722 5722 5721 5720 5720 5720 5719 5717 5715 5711 5708 5706 5705 5702 5699 5697 5695 5692 5690 5688 5685 5682 5680 5677 5675 5673 5670 5668 5666 5664 5662 5661 5661 5660 5660 5660 5659 5659 5658 5657 5657
5718 5719 5719 5719 5718 5718 5718 5717 5717 5715 5713 5710 5707 5706 5703 5700 5698 5696 5693 5691 5688 5686 5684 5681 5679 5677 5676 5675 5673 5669 5666 5664 5662 5661 5660 5660 5660 5661 5661 5660 5660 5658 5656
5713 5714 5715 5716 5717 5717 5716 5715 5715 5713 5710 5708 5706 5704 5701 5698 5696 5694 5691 5689 5687 5685 5682 5680 5678 5676 5675 5675 5673 5671 5666 5664 5662 5660 5659 5660 5660 5659 5659 5659 5659 5658 5658
5710 5711 5712 5713 5714 5714 5713 5712 5711 5709 5707 5705 5703 5701 5698 5696 5694 5691 5689 5687 5685 5683 5681 5679 5677 5675 5674 5674 5672 5670 5666 5663 5661 5660 5658 5657 5657 5657 5656 5655 5654 5654 5654
5707 5708 5709 5709 5709 5709 5708 5706 5704 5702 5701 5700 5699 5698 5696 5693 5691 5689 5687 5685 5683 5681 5679 5677 5675 5673 5672 5672 5671 5668 5663 5661 5659 5658 5657 5656 5655 5656 5655 5652 5651 5650 5651
5702 5702 5703 5703 5703 5702 5701 5699 5697 5695 5695 5695 5695 5694 5692 5690 5688 5687 5685 5683 5681 5679 5677 5675 5673 5672 5670 5670 5668 5666 5661 5658 5656 5655 5655 5655 5654 5654 5653 5650 5648 5647 5647
5696 5696 5696 5695 5695 5694 5693 5690 5689 5689 5691 5690 5689 5688 5687 5686 5685 5683 5681 5679 5677 5675 5673 5672 5671 5669 5668 5667 5666 5663 5659 5657 5654 5652 5651 5651 5652 5651 5650 5648 5646 5645 5644
5687 5687 5686 5685 5685 5685 5684 5683 5682 5684 5684 5682 5681 5681 5681 5680 5680 5676 5675 5673 5671 5669 5668 5667 5666 5665 5664 5663 5662 5660 5658 5655 5652 5650 5649 5648 5648 5647 5646 5644 5643 5642 5640
5676 5676 5675 5675 5675 5675 5674 5673 5675 5675 5674 5674 5673 5673 5673 5672 5672 5670 5668 5666 5664 5663 5663 5661 5661 5660 5660 5659 5658 5657 5655 5653 5649 5648 5647 5645 5644 5642 5640 5639 5638 5636 5633
5664 5664 5664 5664 5664 5665 5664 5664 5665 5665 5665 5664 5665 5665 5664 5664 5663 5663 5662 5660 5658 5657 5657 5656 5656 5655 5653 5653 5652 5651 5649 5648 5645 5642 5641 5639 5637 5635 5633 5632 5630 5628 5627
5652 5652 5651 5651 5652 5653 5654 5654 5654 5654 5654 5654 5655 5655 5655 5655 5654 5654 5654 5654 5655 5654 5654 5654 5652 5649 5649 5651 5649 5646 5644 5642 5640 5636 5633 5630 5628 5626 5624 5623 5621 5620 5619
5640 5640 5640 5640 5640 5641 5642 5643 5643 5643 5643 5643 5644 5644 5644 5644 5644 5644 5644 5645 5645 5647 5648 5648 5647 5647 5647 5646 5643 5641 5639 5637 5634 5630 5627 5625 5622 5621 5619 5616 5614 5612 5611